Location: Joplin, MO
(37.0842°N, 94.5133°W)
Time: 14:08:21
(UTC+02:00)

Courier 1B Rocket - Visible Passes

Search period start: 26 March 2023 00:00
Search period end: 05 April 2023 01:00
Orbit: 920 x 1202 km, 28.2° (Epoch: 25 March)

Date Brightness Start Highest point End Pass type
(mag) Time Alt. Az. Time Alt. Az. Time Alt. Az.
26 Mar 6.5 03:02:19 10° SSW 03:07:26 21° SSE 03:12:18 10° ESE visible
26 Mar 6.0 04:54:07 10° SW 04:58:56 33° SSW 04:58:56 33° SSW visible
27 Mar 6.0 03:53:11 10° SW 03:59:19 32° SSE 04:01:51 25° SE visible
27 Mar 6.9 05:46:03 10° WSW 05:48:13 20° WSW 05:48:13 20° WSW visible
28 Mar 6.3 02:52:22 10° SW 02:58:20 28° SSE 03:03:58 10° ESE visible
28 Mar 5.7 04:44:53 10° WSW 04:51:06 39° S 04:51:06 39° S visible
29 Mar 5.9 03:43:47 10° WSW 03:50:17 37° S 03:53:55 22° ESE visible
29 Mar 6.6 05:37:00 10° WSW 05:40:18 26° SW 05:40:18 26° SW visible
30 Mar 5.6 04:35:44 10° WSW 04:42:17 40° S 04:43:05 39° SSE visible
31 Mar 5.9 03:34:30 10° WSW 03:41:15 41° S 03:45:50 18° ESE visible
31 Mar 6.4 05:28:02 10° WSW 05:32:12 29° SW 05:32:12 29° SW visible
01 Apr 5.8 04:26:39 10° WSW 04:33:16 39° S 04:34:56 34° SSE visible
01 Apr 7.4 06:20:48 10° WSW 06:21:18 12° WSW 06:21:18 12° WSW visible
02 Apr 5.9 03:25:19 10° WSW 03:32:13 42° S 03:37:40 15° ESE visible
02 Apr 6.3 05:19:09 10° WSW 05:24:02 28° SW 05:24:02 28° SW visible
03 Apr 6.1 04:17:39 10° WSW 04:24:12 35° SSW 04:26:45 27° SSE visible
03 Apr 7.4 06:12:25 10° WSW 06:13:07 12° WSW 06:13:07 12° WSW visible
04 Apr 6.1 03:16:13 10° WSW 03:23:09 40° S 03:29:29 11° ESE visible
04 Apr 6.5 05:10:26 10° WSW 05:15:51 24° SSW 05:15:51 24° SSW visible
